• In Czech Republic
  • List of Countries
  • For 7 days
  • Water Temperature
  • Satellite Maps
  • Weather Map
  • Weather Widgets
  • user-avatar
    Login

    Hourly Weather Montreal

    Today, 20 September, Thursday

    Time Temperature Precipitation Wind Pressure Humidity
    00:00 +11°C° 0 mm 1 mps 762 mmHg 86%
    01:00 +11°C° 0 mm 1 mps 762 mmHg 88%
    02:00 +10°C° 0 mm 1 mps 763 mmHg 89%
    03:00 +9°C° 0 mm 2 mps 763 mmHg 90%
    04:00 +8°C° 0 mm 2 mps 763 mmHg 91%
    05:00 +10°C° 0 mm 1 mps 763 mmHg 89%
    06:00 +10°C° 0 mm 1 mps 764 mmHg 87%
    07:00 +11°C° 0 mm 1 mps 764 mmHg 85%
    08:00 +13°C° 0 mm 1 mps 764 mmHg 79%
    09:00 +14°C° 0 mm 1 mps 764 mmHg 73%
    10:00 +16°C° 0 mm 1 mps 764 mmHg 67%
    11:00 +18°C° 0 mm 1 mps 764 mmHg 65%
    12:00 +18°C° 0 mm 1 mps 764 mmHg 63%
    13:00 +19°C° 0 mm 1 mps 764 mmHg 61%
    14:00 +19°C° 0 mm 1 mps 764 mmHg 61%
    15:00 +19°C° 0 mm 1 mps 763 mmHg 61%
    16:00 +19°C° 0 mm 1 mps 763 mmHg 61%
    17:00 +18°C° 0 mm 1 mps 763 mmHg 66%
    18:00 +16°C° 0 mm 1 mps 763 mmHg 70%
    19:00 +15°C° 0 mm 1 mps 764 mmHg 75%
    20:00 +15°C° 0 mm 1 mps 764 mmHg 75%
    21:00 +15°C° 0 mm 2 mps 764 mmHg 76%
    22:00 +14°C° 0 mm 2 mps 764 mmHg 77%
    23:00 +14°C° 0 mm 2 mps 763 mmHg 77%

    Tomorrow, 21 September, Friday

    Time Temperature Precipitation Wind Pressure Humidity
    00:00 +14°C° 0 mm 2 mps 763 mmHg 78%
    01:00 +14°C° 0 mm 2 mps 762 mmHg 78%
    02:00 +13°C° 0.7 mm 3 mps 761 mmHg 82%
    03:00 +13°C° 0.7 mm 3 mps 761 mmHg 85%
    04:00 +14°C° 0.7 mm 4 mps 760 mmHg 89%
    05:00 +14°C° 0.5 mm 4 mps 759 mmHg 88%
    06:00 +15°C° 0.5 mm 4 mps 759 mmHg 88%
    07:00 +15°C° 0.5 mm 4 mps 758 mmHg 88%
    08:00 +17°C° 0.1 mm 5 mps 757 mmHg 84%
    09:00 +20°C° 0.1 mm 6 mps 756 mmHg 80%
    10:00 +21°C° 0.1 mm 6 mps 756 mmHg 77%
    11:00 +22°C° 0.3 mm 7 mps 755 mmHg 77%
    12:00 +23°C° 0.3 mm 7 mps 754 mmHg 77%
    13:00 +23°C° 0.3 mm 7 mps 753 mmHg 77%
    14:00 +24°C° 0.1 mm 7 mps 752 mmHg 76%
    15:00 +24°C° 0.1 mm 8 mps 751 mmHg 74%
    16:00 +26°C° 0.1 mm 8 mps 750 mmHg 73%
    17:00 +26°C° 0.8 mm 8 mps 750 mmHg 75%
    18:00 +24°C° 0.8 mm 9 mps 750 mmHg 78%
    19:00 +24°C° 0.8 mm 9 mps 749 mmHg 81%
    20:00 +23°C° 1.6 mm 8 mps 750 mmHg 82%
    21:00 +22°C° 1.6 mm 7 mps 750 mmHg 84%
    22:00 +21°C° 1.6 mm 6 mps 750 mmHg 86%
    23:00 +20°C° 0 mm 6 mps 751 mmHg 86%

    Day after tomorrow, 22 September, Saturday

    Time Temperature Precipitation Wind Pressure Humidity
    00:00 +17°C° 0 mm 6 mps 752 mmHg 86%
    01:00 +16°C° 0 mm 5 mps 753 mmHg 86%
    02:00 +15°C° 0.1 mm 5 mps 754 mmHg 83%
    03:00 +13°C° 0.1 mm 5 mps 756 mmHg 80%
    04:00 +12°C° 0.1 mm 4 mps 757 mmHg 76%
    05:00 +11°C° 0 mm 4 mps 759 mmHg 76%
    06:00 +11°C° 0 mm 4 mps 760 mmHg 75%
    07:00 +10°C° 0 mm 3 mps 761 mmHg 74%
    08:00 +11°C° 0 mm 3 mps 762 mmHg 67%
    09:00 +12°C° 0 mm 3 mps 762 mmHg 59%
    10:00 +13°C° 0 mm 3 mps 763 mmHg 52%
    11:00 +15°C° 0 mm 2 mps 763 mmHg 48%
    12:00 +16°C° 0 mm 2 mps 762 mmHg 44%
    13:00 +18°C° 0 mm 1 mps 762 mmHg 40%
    14:00 +18°C° 0 mm 1 mps 762 mmHg 42%
    15:00 +18°C° 0 mm 1 mps 761 mmHg 43%
    16:00 +17°C° 0 mm 2 mps 761 mmHg 44%
    17:00 +15°C° 0 mm 2 mps 761 mmHg 50%
    18:00 +14°C° 0 mm 2 mps 762 mmHg 55%
    19:00 +12°C° 0 mm 2 mps 762 mmHg 61%
    20:00 +10°C° 0 mm 2 mps 762 mmHg 63%
    21:00 +10°C° 0 mm 2 mps 762 mmHg 65%
    22:00 +9°C° 0 mm 2 mps 762 mmHg 67%
    23:00 +9°C° 0 mm 2 mps 762 mmHg 68%

    23 September, Sunday

    Time Temperature Precipitation Wind Pressure Humidity
    00:00 +8°C° 0 mm 2 mps 762 mmHg 69%
    01:00 +8°C° 0 mm 2 mps 762 mmHg 70%
    02:00 +8°C° 0 mm 2 mps 762 mmHg 72%
    03:00 +7°C° 0 mm 2 mps 762 mmHg 73%
    04:00 +7°C° 0 mm 2 mps 763 mmHg 74%
    05:00 +8°C° 0 mm 2 mps 763 mmHg 73%
    06:00 +8°C° 0 mm 3 mps 764 mmHg 72%
    07:00 +8°C° 0 mm 3 mps 765 mmHg 71%
    08:00 +10°C° 0 mm 3 mps 765 mmHg 65%
    09:00 +11°C° 0 mm 3 mps 765 mmHg 60%
    10:00 +13°C° 0 mm 3 mps 766 mmHg 54%
    11:00 +13°C° 0 mm 3 mps 766 mmHg 52%
    12:00 +13°C° 0 mm 3 mps 766 mmHg 50%
    13:00 +15°C° 0 mm 2 mps 766 mmHg 49%
    14:00 +15°C° 0 mm 2 mps 766 mmHg 48%
    15:00 +15°C° 0 mm 2 mps 766 mmHg 48%
    16:00 +15°C° 0 mm 2 mps 767 mmHg 47%
    17:00 +13°C° 0 mm 2 mps 767 mmHg 51%
    18:00 +10°C° 0 mm 2 mps 768 mmHg 54%
    19:00 +8°C° 0 mm 2 mps 769 mmHg 58%
    20:00 +8°C° 0 mm 2 mps 769 mmHg 57%
    21:00 +8°C° 0 mm 1 mps 770 mmHg 57%
    22:00 +7°C° 0 mm 1 mps 770 mmHg 56%
    23:00 +7°C° 0 mm 1 mps 771 mmHg 56%

    24 September, Monday

    Time Temperature Precipitation Wind Pressure Humidity
    00:00 +5°C° 0 mm 2 mps 771 mmHg 55%
    01:00 +5°C° 0 mm 2 mps 771 mmHg 54%
    02:00 +4°C° 0 mm 2 mps 772 mmHg 53%
    03:00 +4°C° 0 mm 2 mps 772 mmHg 52%
    04:00 +4°C° 0 mm 2 mps 773 mmHg 51%
    05:00 +3°C° 0 mm 3 mps 773 mmHg 51%
    06:00 +3°C° 0 mm 3 mps 774 mmHg 50%
    07:00 +3°C° 0 mm 3 mps 774 mmHg 49%
    08:00 +7°C° 0 mm 3 mps 774 mmHg 46%
    09:00 +9°C° 0 mm 3 mps 774 mmHg 42%
    10:00 +11°C° 0 mm 4 mps 774 mmHg 39%
    11:00 +12°C° 0 mm 4 mps 773 mmHg 38%
    12:00 +13°C° 0 mm 3 mps 773 mmHg 36%
    13:00 +16°C° 0 mm 3 mps 772 mmHg 35%
    14:00 +16°C° 0 mm 3 mps 772 mmHg 37%
    15:00 +16°C° 0 mm 3 mps 771 mmHg 39%
    16:00 +16°C° 0 mm 3 mps 771 mmHg 42%
    17:00 +13°C° 0 mm 3 mps 771 mmHg 45%
    18:00 +12°C° 0 mm 3 mps 771 mmHg 48%
    19:00 +10°C° 0 mm 3 mps 771 mmHg 51%
    20:00 +9°C° 0 mm 3 mps 771 mmHg 52%
    21:00 +9°C° 0 mm 3 mps 771 mmHg 54%
    22:00 +9°C° 0 mm 2 mps 772 mmHg 55%
    23:00 +9°C° 0 mm 3 mps 771 mmHg 59%

    25 September, Tuesday

    Time Temperature Precipitation Wind Pressure Humidity
    00:00 +9°C° 0 mm 3 mps 771 mmHg 63%
    01:00 +9°C° 0 mm 3 mps 771 mmHg 68%
    02:00 +9°C° 0 mm 3 mps 771 mmHg 71%
    03:00 +8°C° 0 mm 3 mps 770 mmHg 75%
    04:00 +8°C° 0 mm 3 mps 770 mmHg 78%
    05:00 +9°C° 0 mm 3 mps 770 mmHg 77%
    06:00 +9°C° 0 mm 3 mps 770 mmHg 76%
    07:00 +10°C° 0 mm 4 mps 769 mmHg 74%
    08:00 +12°C° 0 mm 4 mps 768 mmHg 67%
    09:00 +14°C° 0 mm 5 mps 768 mmHg 60%
    10:00 +16°C° 0 mm 6 mps 767 mmHg 52%
    11:00 +16°C° 0.1 mm 6 mps 766 mmHg 54%
    12:00 +16°C° 0.1 mm 6 mps 765 mmHg 55%
    13:00 +16°C° 0.1 mm 5 mps 764 mmHg 56%
    14:00 +15°C° 0.7 mm 5 mps 764 mmHg 64%
    15:00 +15°C° 0.7 mm 4 mps 763 mmHg 72%
    16:00 +14°C° 0.7 mm 4 mps 763 mmHg 80%
    17:00 +14°C° 1.6 mm 4 mps 762 mmHg 84%
    18:00 +15°C° 1.6 mm 4 mps 762 mmHg 87%
    19:00 +15°C° 1.6 mm 5 mps 761 mmHg 91%
    20:00 +15°C° 0.6 mm 5 mps 760 mmHg 90%
    21:00 +16°C° 0.6 mm 5 mps 759 mmHg 90%
    22:00 +16°C° 0.6 mm 5 mps 759 mmHg 90%
    23:00 +17°C° 0.5 mm 5 mps 758 mmHg 90%
    Show more